Flag for Canada Weather past 2 weeks in Alert, Nunavut Territory, Canada

Now
-8 °F

Partly sunny.


Feels Like: -8 °F
Forecast: -28 / 3 °F
Wind: No wind

Location: Alert Airport


UV Index: 0 (Low)

Visibility: 15 mi


Pressure: 29.61 "Hg

Humidity: 70%

Dew point: -15 °F

Location of AlertLocation

Historic Weather in Alert

°F

Alert temperature yesterday

Maximum temperature yesterday: -4 °F (at 10:00 PM)
Minimum temperature yesterday: -9 °F (at 1:00 AM)
Average temperature yesterday: -7 °F

Past Weeks' High & Low Weather Summary

 TemperatureHumidityPressure
High12 °F (Apr 14, 6:00 PM)100% (Apr 14, 8:00 AM)30.28 "Hg (Apr 14, 8:00 AM)
Low-35 °F (Apr 9, 4:00 AM)59% (Apr 9, 4:00 AM)29.41 "Hg (Apr 14, 6:00 PM)
Average-13 °F74%29.91 "Hg
* Reported Apr 3 7:00 AM — Apr 17 8:00 PM, Alert, Weather by CustomWeather, © 2014

Note: Actual official high and low records may vary slightly from our data, if they occured in-between our weather recording intervals... More about our weather records

Advertising

Historic Weather Conditions — Data for Previous 24 hours

 ConditionsComfort  
Time TempWeatherWind HumidityBarometerVisibility
8:00 PM
Apr 17
-9 °FPartly sunny.No wind77%29.61 "Hg15 mi
7:00 PM-8 °FPartly sunny.5 mph77%29.61 "Hg15 mi
6:00 PM-6 °FPartly sunny.3 mph84%29.61 "Hg15 mi
5:00 PM-4 °FPartly sunny.7 mph71%29.62 "Hg15 mi
4:00 PM-8 °FPartly sunny.3 mph77%29.62 "Hg15 mi
3:00 PM-2 °FPartly sunny.2 mph77%29.63 "Hg15 mi
2:00 PM-6 °FPartly sunny.7 mph77%29.63 "Hg15 mi
1:00 PM-2 °FScattered clouds.8 mph71%29.64 "Hg11 mi
12:00 PM-4 °FScattered clouds.7 mph71%29.66 "Hg11 mi
10:00 AM-4 °FLight snow. Partly sunny.2 mph77%29.70 "Hg9 mi
9:00 AM-4 °FPartly sunny.3 mph71%29.72 "Hg11 mi
8:00 AM-2 °FPartly sunny.No wind71%29.76 "Hg11 mi
7:00 AM-4 °FPartly sunny.2 mph77%29.79 "Hg11 mi
6:00 AM-6 °FPartly sunny.2 mph77%29.80 "Hg11 mi
5:00 AM-2 °FPartly sunny.2 mph77%29.82 "Hg11 mi
4:00 AM-4 °FPartly sunny.3 mph77%29.85 "Hg7 mi
3:00 AM-6 °FLight snow. Broken clouds.9 mph77%29.86 "Hg5 mi
2:45 AMN/ALight snow.9 mphN/AN/A5 mi
2:00 AM-6 °FLight snow. Overcast.2 mph77%29.88 "Hg2 mi
1:00 AM-6 °FLight snow. Overcast.5 mph77%29.90 "Hg2 mi
12:00 AM-4 °FLight snow. Ice fog.2 mph77%29.92 "Hg1 mi
11:00 PM
Apr 16
-4 °FLight snow. Ice fog.3 mph77%29.93 "Hg1 mi
10:00 PM-4 °FLight snow. Ice fog.3 mph77%29.94 "Hg1 mi
9:00 PM-6 °FLight snow. Ice fog.5 mph77%29.96 "Hg1 mi
Weather by CustomWeather, © 2014

See weather overview